RH
34 43 56 47 42 38 41 48 45 33 24 24 23 22 19 17 16 11 10 10 22 44 53 64 70 75 78 78 80 89 97 100 100 100 100 97 90 90 88 91 70 68 73 63
33 49 36 28 28 31 39 49 48 39 27 26 24 24 18 16 17 15 12 9 15 37 62 65 73 78 80 83 88 94 97 100 99 95 89 86 82 84 74 83 74 65 67 66
41 37 25 35 40 64 54 55 49 52 44 37 34 30 21 18 17 14 12 10 10 33 53 66 73 80 85 86 91 94 95 94 94 86 88 82 85 75 79 74 76 71 64 62
23 19 27 46 69 52 73 47 55 62 58 56 27 32 18 13 14 14 13 12 12 25 44 59 66 80 83 86 89 89 90 91 88 84 81 73 70 64 64 62 66 71 59 58
25 24 29 52 69 42 63 54 55 54 64 59 47 43 22 15 15 13 12 12 12 21 38 54 64 70 80 84 87 89 88 88 82 82 74 72 65 62 56 58 63 68 69 78
24 21 40 60 34 42 44 53 51 48 57 89 49 41 22 17 15 12 10 10 12 18 34 47 61 69 74 80 84 88 85 84 82 79 73 69 64 60 52 57 63 66 72 73
33 26 35 44 55 46 54 60 59 66 80 61 32 44 30 15 15 13 17 10 11 15 32 48 56 66 72 78 82 87 84 80 80 78 71 66 64 62 52 56 57 59 68 75
53 37 45 35 65 87 65 89 88 84 59 41 32 43 30 19 24 26 33 68 56 39 34 46 54 61 67 75 80 84 82 78 79 76 68 65 62 64 55 53 51 55 66 74
60 44 32 34 40 79 66 72 76 89 57 88 36 26 27 59 57 62 72 71 69 66 68 67 51 57 63 71 77 82 80 76 78 76 71 66 64 62 58 54 55 56 66 71
42 66 37 33 32 68 58 78 75 70 86 82 35 38 72 90 93 78 71 65 67 69 72 78 72 54 60 67 73 80 80 76 75 76 70 66 66 65 64 65 67 63 70 72
44 59 45 35 43 54 53 60 67 82 89 89 82 93 99 99 95 81 73 68 71 81 86 85 78 77 57 64 70 77 80 78 75 76 73 68 67 67 71 75 77 74 76 71
49 62 67 46 45 46 41 51 75 88 72 78 89 95 95 100 96 90 68 68 76 81 86 90 93 77 60 62 69 75 79 79 77 78 80 76 74 73 78 80 80 82 83 76
58 73 72 31 36 34 45 47 54 71 93 92 89 90 89 95 97 95 96 77 76 80 85 88 90 95 81 64 67 72 76 78 77 78 84 87 85 86 88 85 86 82 81 79
43 64 69 64 60 52 61 52 82 86 88 89 88 89 88 92 96 96 96 96 78 77 81 83 89 92 95 96 86 75 74 79 79 86 91 94 95 96 93 95 90 79 85 78
56 75 57 60 53 46 47 87 86 91 94 89 90 90 92 95 97 98 100 98 94 80 74 79 82 92 92 95 98 99 89 86 86 87 95 95 97 98 100 100 91 87 86 86
80 71 61 65 42 40 55 90 73 74 89 89 80 76 94 91 94 91 96 96 96 95 75 66 69 76 92 95 97 99 100 100 93 94 97 98 100 100 100 100 98 94 93 90
35 37 67 61 35 43 87 90 89 83 88 90 88 95 93 89 96 96 97 97 97 96 88 74 63 69 82 97 97 98 100 100 100 100 99 100 100 100 100 100 100 100 97 96
25 28 43 61 51 83 88 52 84 93 80 90 90 94 95 96 92 76 95 97 96 98 93 70 65 64 67 92 97 97 98 99 100 100 100 100 100 100 100 100 100 100 100 100
20 26 47 79 68 51 45 51 81 91 68 67 88 89 89 81 61 65 88 95 96 96 94 73 69 60 53 70 94 94 94 97 98 100 100 100 100 100 100 100 100 99 100 99
21 30 79 70 77 88 73 55 64 67 67 46 53 68 72 75 84 88 96 96 95 77 92 76 65 67 59 50 62 91 96 95 98 99 100 100 99 100 100 100 100 100 98 100
41 43 56 50 87 88 66 49 33 67 80 50 50 64 77 80 85 81 71 68 78 77 55 68 71 64 62 60 46 68 90 95 90 98 98 100 99 97 100 100 100 100 99 100
54 70 65 60 67 83 79 51 79 63 49 48 50 62 72 75 73 66 56 56 64 83 56 37 55 66 54 50 50 39 68 92 86 74 84 98 86 100 99 100 100 100 100 100
63 80 89 90 88 58 49 51 43 43 45 46 54 57 50 44 50 46 46 43 44 51 58 44 36 38 52 51 43 49 37 68 79 73 76 73 91 85 88 98 100 99 100 99
45 51 73 52 38 46 33 35 41 38 38 34 37 39 36 38 36 40 41 40 41 45 40 46 44 39 36 28 43 37 31 36 52 64 71 75 82 72 87 87 96 99 99 100
50 58 68 42 32 35 26 32 41 40 35 35 33 35 34 35 33 32 32 32 36 36 41 40 43 43 38 33 28 29 32 28 32 38 52 70 77 85 78 81 86 90 87 90
56 77 64 44 41 50 38 34 36 38 38 34 35 36 34 34 34 33 33 32 30 33 36 37 37 37 36 34 32 32 34 36 34 33 36 39 60 63 79 80 88 91 89 80
Wind_Speed
6 7 9 12 10 12 16 18 24 24 16 20 22 25 19 14 16 19 18 20 16 16 17 29 32 34 35 34 34 33 33 33 31 27 24 22 23 23 23 26 32 33 27 29
6 7 10 17 15 13 14 17 26 20 11 16 21 31 25 26 23 20 23 21 20 16 17 20 28 32 35 36 36 34 34 34 35 31 28 22 24 23 25 25 33 34 31 28
4 7 19 17 10 14 13 13 19 20 17 17 19 28 26 23 17 19 20 24 21 21 21 22 22 31 34 36 38 40 38 36 36 31 27 21 20 17 23 26 28 32 34 31
5 14 15 15 3 17 16 7 17 18 12 9 4 11 15 16 24 21 21 22 23 22 20 21 25 25 36 39 38 38 37 37 36 34 32 32 30 26 26 26 28 29 37 35
14 12 13 11 11 22 12 18 21 20 14 16 21 10 12 13 21 24 23 23 23 24 21 22 26 32 37 37 37 38 36 35 36 36 35 33 31 27 25 26 28 31 33 30
12 10 2 1 21 16 19 16 20 16 12 12 20 16 11 13 20 20 22 21 22 24 22 23 27 34 33 35 33 34 37 37 38 38 37 37 33 31 27 29 29 30 29 32
17 10 5 5 23 13 23 14 4 6 8 13 13 13 21 12 14 16 14 21 20 21 19 20 22 23 31 35 35 35 37 38 39 42 40 40 37 35 35 33 32 31 30 32
11 11 9 16 8 9 17 10 6 7 7 12 12 11 14 15 16 19 14 9 8 5 8 16 22 22 28 34 37 38 40 38 41 42 44 41 39 36 35 37 37 36 33 31
8 7 20 12 16 4 12 14 20 9 18 10 9 13 1 19 14 15 10 10 9 10 11 11 14 21 27 32 38 42 42 41 41 45 42 41 40 38 38 36 37 36 34 31
7 12 7 12 13 3 11 12 8 6 5 7 9 7 8 19 17 18 17 17 15 14 14 13 11 16 27 34 40 41 43 45 46 45 47 47 45 42 38 35 36 35 34 33
12 5 10 15 5 14 12 7 5 6 6 5 5 6 11 12 16 17 16 16 16 16 14 13 12 11 26 29 31 35 37 39 39 41 41 39 39 39 36 36 36 37 35 38
7 7 11 22 18 4 8 11 8 6 6 7 4 4 13 13 14 17 18 18 17 16 14 13 11 8 13 24 27 31 32 34 38 37 33 33 32 33 36 36 35 34 35 38
6 3 11 11 1 5 9 17 18 17 10 2 5 6 19 17 17 18 19 19 18 18 19 17 16 11 4 15 22 26 29 30 29 28 29 30 30 32 31 31 31 36 35 37
9 6 9 10 15 16 15 22 17 11 4 8 9 13 21 20 21 22 18 18 18 19 20 19 19 17 14 11 5 15 22 24 26 27 28 29 31 31 32 32 34 37 37 39
9 8 14 14 17 18 14 10 16 20 14 9 16 15 25 24 19 23 17 17 19 24 24 22 21 17 17 21 21 8 12 20 24 26 27 28 30 31 32 33 37 37 38 35
9 8 16 12 17 10 9 14 16 19 19 11 16 13 22 21 17 25 24 23 24 20 25 23 22 21 18 23 21 21 20 4 23 25 25 25 27 29 31 32 35 35 32 31
14 13 10 5 12 12 7 19 14 15 16 13 16 16 21 22 20 25 25 22 22 22 21 24 22 20 24 24 26 25 24 26 17 13 24 27 29 29 30 31 30 31 30 29
18 18 6 7 11 3 5 18 11 9 18 15 15 19 21 21 14 21 23 20 21 20 23 22 20 29 33 32 28 31 31 31 28 27 24 9 24 24 26 29 32 32 32 29
16 12 7 4 8 4 24 27 18 5 16 19 19 19 20 22 17 26 28 21 18 17 17 27 29 31 33 38 32 30 33 35 33 29 28 27 16 15 22 21 19 19 26 22
18 13 4 7 4 6 16 25 18 7 15 23 19 17 19 20 16 14 21 21 21 27 27 26 34 34 36 33 35 29 31 34 34 31 30 29 30 23 13 16 16 16 12 13
13 11 11 11 3 5 20 19 11 17 10 18 16 15 15 12 9 12 16 19 29 29 26 29 29 29 32 34 29 27 27 29 28 28 32 32 32 26 22 14 16 18 20 15
8 8 6 6 7 6 20 11 10 10 13 14 16 15 14 13 15 15 14 15 19 23 27 27 22 25 28 34 35 28 25 21 22 29 31 28 38 34 25 22 19 18 19 18
5 4 4 4 6 12 12 12 14 14 14 16 15 14 16 17 16 17 16 16 17 18 23 23 24 20 21 24 21 29 22 21 18 20 19 30 30 30 32 27 20 15 21 19
3 7 3 5 12 12 14 14 15 15 15 16 16 16 17 17 18 18 16 15 19 23 21 20 23 21 23 26 18 16 18 20 18 17 15 17 20 26 24 24 19 22 25 19
3 7 4 4 9 10 13 13 13 14 16 19 22 17 17 18 18 17 16 17 22 24 24 21 17 19 21 22 22 17 14 11 12 13 13 11 11 14 20 21 20 21 22 22
2 2 3 4 10 6 12 16 17 16 17 16 17 19 23 21 17 22 18 24 22 22 22 23 22 21 21 20 18 19 16 13 11 10 9 8 7 8 10 15 16 15 14 17
Wind_Direction
356 46 34 346 336 319 309 290 284 274 278 292 275 279 281 293 294 286 269 267 258 236 215 204 198 192 188 189 191 187 186 191 185 185 183 187 193 189 193 193 194 194 190 186
12 64 10 332 318 308 296 289 276 293 276 259 267 270 277 274 270 272 276 270 261 247 212 202 192 187 188 188 190 188 190 192 192 191 189 188 194 198 195 195 199 199 196 194
335 314 338 338 345 350 305 278 285 283 293 271 281 277 267 258 262 255 260 269 262 236 216 200 190 187 189 192 193 194 190 192 191 190 186 183 187 190 192 199 200 201 201 201
351 319 330 350 39 353 310 335 322 307 302 279 230 282 269 258 247 240 248 243 252 240 226 205 194 189 192 198 196 196 190 189 191 187 186 188 188 196 203 197 199 200 203 205
325 304 328 347 337 326 275 306 298 284 275 266 250 259 272 233 237 233 234 238 240 237 222 208 201 196 198 199 197 192 188 190 188 191 192 191 193 198 197 195 200 204 206 206
327 293 349 92 329 315 300 304 291 265 233 238 241 225 262 244 244 247 237 241 237 236 222 212 202 197 199 200 198 192 188 187 187 191 194 195 200 188 190 192 198 203 205 207
333 328 344 1 337 338 346 336 299 233 214 250 246 228 240 262 268 274 266 243 236 238 228 215 200 196 197 196 192 190 192 188 188 191 196 198 199 194 193 192 198 201 204 206
345 331 4 339 340 312 321 320 305 306 267 264 217 225 247 245 280 289 297 318 322 313 266 231 209 197 199 194 190 189 191 192 187 192 196 199 199 199 199 198 199 203 207 208
330 282 313 318 345 0 339 335 303 248 252 267 234 246 89 10 356 353 351 346 356 345 334 310 274 209 201 193 193 192 193 195 191 192 194 197 198 200 201 203 204 204 205 205
326 295 295 323 322 165 329 307 332 329 278 246 246 250 8 348 351 355 1 350 347 348 338 325 301 243 207 200 197 195 194 194 195 192 194 196 197 199 202 198 202 204 205 203
316 247 292 317 337 316 344 342 334 279 270 320 323 89 352 3 4 354 348 348 347 343 337 322 309 292 212 202 198 198 198 199 197 196 196 195 197 200 202 203 202 203 204 207
304 285 289 306 304 255 326 318 324 310 304 287 259 87 3 0 2 356 -0 356 352 349 342 347 343 318 215 198 195 196 196 198 199 200 197 199 194 199 202 202 203 204 205 212
306 274 316 317 244 356 330 315 320 306 269 348 344 360 355 6 3 1 5 356 1 6 6 9 13 7 37 198 193 192 194 198 196 192 189 188 194 196 197 198 198 205 212 214
343 269 260 274 288 298 306 321 351 356 350 325 14 337 343 346 12 5 2 360 8 16 18 17 15 9 18 42 130 182 189 191 186 179 178 182 189 191 191 192 198 209 216 218
320 276 284 281 280 288 302 33 28 29 7 33 342 356 350 345 8 9 0 3 13 17 18 18 13 6 17 25 27 40 174 179 180 180 180 186 188 189 189 190 201 209 212 214
357 322 312 291 282 294 359 28 43 41 25 10 6 7 349 349 15 7 358 9 16 15 17 16 13 11 14 20 26 31 33 173 174 179 182 183 183 185 186 190 196 205 210 215
358 341 320 271 309 306 112 2 28 35 34 14 21 344 347 3 13 4 2 1 14 8 12 19 14 13 7 14 26 31 34 43 53 176 181 178 179 182 188 188 188 194 201 206
354 344 322 297 312 51 52 6 344 11 27 16 14 2 3 353 357 16 8 358 12 7 6 15 16 12 13 14 30 35 37 43 41 39 46 103 171 175 179 179 182 186 193 196
348 334 310 297 317 24 17 353 341 347 31 16 5 1 359 351 353 17 6 4 8 7 6 6 15 19 18 22 23 41 43 45 40 37 37 38 57 137 159 158 162 171 181 175
345 346 349 16 334 54 357 345 4 159 31 358 358 356 355 357 16 356 346 360 360 5 10 2 9 15 22 19 30 33 44 44 40 34 38 41 51 46 109 138 151 149 140 180
358 359 12 7 340 117 6 357 1 36 330 335 347 349 344 357 341 315 337 352 9 2 14 9 5 11 10 15 19 36 46 52 46 41 44 42 52 53 40 94 127 131 136 153
354 349 358 345 14 16 346 10 27 337 339 352 351 351 347 339 337 339 340 351 3 3 358 11 5 356 13 17 17 22 31 54 59 57 52 49 50 48 54 52 72 101 122 123
8 356 315 313 12 338 6 16 11 11 8 5 359 354 358 359 358 356 354 350 348 347 355 355 10 5 348 348 21 6 17 29 41 60 58 67 64 60 46 42 57 72 86 94
327 2 335 1 1 4 16 11 5 1 359 358 1 356 358 355 357 354 354 354 356 351 350 348 350 2 3 7 333 5 4 17 28 40 50 60 72 78 77 73 51 57 69 70
329 320 344 357 5 340 358 354 353 347 348 348 344 347 346 345 343 345 342 348 350 351 355 353 359 351 354 359 4 1 350 16 20 24 24 36 67 79 83 79 70 69 73 75
246 291 348 332 333 321 325 332 335 336 335 337 336 335 334 335 332 332 331 331 336 338 343 349 354 359 352 350 358 4 359 350 358 11 16 23 34 64 91 95 86 78 81 85